STARLINK-11542 [DTC] (62988 NORAD) Tracking and Keplerian Element Data

This shows tracking and keplerian element data for the satellite.

Feedback or suggestion? Click here.




ElementValue
Catalog62988
NameSTARLINK-11542 [DTC]
Epoch Orbit5019
Epoch Day354.07235791
Epoch Year2025
RAAN121.0993
Inclination43.0003
Eccentricity0.000273
Argument of Perigee291.3109
Mean Anonmoly68.7467
Mean Motion15.71073745
Decay Rate0.00204105
L11 62988U 25031H 25354.07235791 .00204105 00000+0 15401-2 0 9991
L22 62988 43.0003 121.0993 0002730 291.3109 68.7467 15.71073745 50190



Live tracking and technical data element details for STARLINK-11542 [DTC] (NORAD 62988). STARLINK-11542 [DTC] can be tracked NOW for your location showing map with azimuth and elevation plus other details from your city location.







IsCatalogInMostPopularTable: catalog: 62988, numindb: 2
Update: records affected: 1



GetName: 62988 STARLINK-11542 [DTC]

Hit Count: updated at: Sun, 08 Feb 2026 07:52:54 GMT